EW6292 Weather Reports


time (UTC)temp
C
wind
direction
speed
KPH
gust
KPH
rain 1hr
cm
rain 24hr
cm
rain mn
cm
humidity
%
barometer
mb
20260504150927 22 205 4.8 8.0 0.00 0.00 0.00 58 1011.1
20260504150428 22 217 4.8 9.7 0.00 0.00 0.00 58 1011.2
20260504140924 20 213 6.4 12.9 0.00 0.00 0.00 62 1011.2
20260504140421 20 184 6.4 9.7 0.00 0.00 0.00 63 1011.5
20260504130818 18 167 4.8 8.0 0.00 0.00 0.00 67 1011.4
20260504130313 18 194 4.8 8.0 0.00 0.00 0.00 67 1011.2
20260504120318 15 168 1.6 4.8 0.00 0.00 0.00 72 1011.0
20260504110223 14 196 1.6 4.8 0.00 0.00 0.00 70 1010.4
20260504100111 14 204 3.2 6.4 0.00 0.00 0.00 67 1010.5
20260504081952 15 189 4.8 8.0 0.00 0.00 0.00 63 1010.8
20260504081450 15 178 6.4 8.0 0.00 0.00 0.00 64 1010.8
20260504080951 15 209 6.4 8.0 0.00 0.00 0.00 64 1010.7
20260504080450 15 198 4.8 8.0 0.00 0.00 0.00 63 1010.7
20260504050438 13 189 3.2 6.4 0.00 0.00 0.00 62 1012.3
20260504045938 13 198 3.2 6.4 0.00 0.00 0.00 62 1012.2
20260504045438 13 196 3.2 4.8 0.00 0.00 0.00 62 1012.3
20260504044941 13 206 3.2 6.4 0.00 0.00 0.00 63 1012.4
20260504044439 13 150 3.2 6.4 0.00 0.00 0.00 62 1012.4
20260504043941 13 210 3.2 6.4 0.00 0.00 0.00 63 1012.5
20260504043438 13 198 3.2 4.8 0.00 0.00 0.00 63 1012.5
20260504042941 13 181 3.2 4.8 0.00 0.00 0.00 63 1012.5
20260504042439 13 190 3.2 4.8 0.00 0.00 0.00 63 1012.5
20260504041941 13 186 3.2 4.8 0.00 0.00 0.00 63 1012.6
20260504041438 13 190 3.2 4.8 0.00 0.00 0.00 63 1012.6
20260504040941 13 188 1.6 4.8 0.00 0.00 0.00 63 1012.6
20260504040439 13 180 0.0 3.2 0.00 0.00 0.00 63 1012.7
20260504040210 13 194 0.0 1.6 0.00 0.00 0.00 63 1012.7
20260504035438 13 194 0.0 3.2 0.00 0.00 0.00 62 1013.0
20260504034939 13 194 1.6 3.2 0.00 0.00 0.00 62 1012.9
20260504034435 13 185 1.6 3.2 0.00 0.00 0.00 62 1012.9
20260504033932 13 162 1.6 4.8 0.00 0.00 0.00 62 1012.8
20260504033423 13 192 3.2 4.8 0.00 0.00 0.00 62 1012.9
20260504032918 13 191 3.2 4.8 0.00 0.00 0.00 62 1013.0
20260504032412 13 194 1.6 4.8 0.00 0.00 0.00 62 1013.1
20260504031906 13 188 1.6 3.2 0.00 0.00 0.00 62 1013.0
20260504031400 13 171 1.6 3.2 0.00 0.00 0.00 61 1013.2
20260504031123 13 183 0.0 3.2 0.00 0.00 0.00 62 1013.2
20260504030348 13 183 0.0 1.6 0.00 0.00 0.00 62 1013.2
20260504030329 13 183 1.6 3.2 0.00 0.00 0.00 61 1013.1
20260504025334 13 183 1.6 3.2 0.00 0.00 0.00 61 1013.1
20260504024827 13 183 1.6 4.8 0.00 0.00 0.00 60 1013.0
20260504024321 13 183 1.6 4.8 0.00 0.00 0.00 60 1012.9
20260504023815 13 164 0.0 3.2 0.00 0.00 0.00 60 1012.9
20260504023309 13 192 0.0 0.0 0.00 0.00 0.00 58 1013.1
20260504022809 13 192 0.0 0.0 0.00 0.00 0.00 57 1013.1
20260504022309 14 192 0.0 0.0 0.00 0.00 0.00 56 1013.0
20260504021806 14 192 0.0 0.0 0.00 0.00 0.00 57 1013.1
20260504021304 14 192 0.0 0.0 0.00 0.00 0.00 56 1013.0
20260504020804 15 192 0.0 0.0 0.00 0.00 0.00 56 1013.0
20260504020304 15 192 0.0 0.0 0.00 0.00 0.00 57 1013.0
20260504020023 15 192 0.0 0.0 0.00 0.00 0.00 55 1013.1
20260504015300 15 192 0.0 0.0 0.00 0.00 0.00 54 1013.0
20260504014800 15 192 0.0 0.0 0.00 0.00 0.00 52 1013.0
20260504014259 15 192 0.0 0.0 0.00 0.00 0.00 52 1013.0
20260504013756 15 192 0.0 0.0 0.00 0.00 0.00 53 1012.8
20260504013256 16 192 0.0 0.0 0.00 0.00 0.00 52 1012.8
20260504013015 16 192 0.0 0.0 0.00 0.00 0.00 52 1012.8
20260504012254 16 192 0.0 0.0 0.00 0.00 0.00 52 1012.8
20260504011752 16 192 0.0 0.0 0.00 0.00 0.00 51 1012.7
20260504011250 16 192 0.0 0.0 0.00 0.00 0.00 51 1012.7
20260504011028 16 192 0.0 0.0 0.00 0.00 0.00 50 1012.7
20260504010250 17 196 0.0 3.2 0.00 0.00 0.00 50 1012.7
20260504005748 17 200 1.6 4.8 0.00 0.00 0.00 49 1012.8
20260504005247 17 195 0.0 4.8 0.00 0.00 0.00 49 1012.7
20260504005002 17 195 0.0 0.0 0.00 0.00 0.00 48 1012.6
20260504004233 17 195 1.6 3.2 0.00 0.00 0.00 47 1012.7
20260504003727 18 195 1.6 4.8 0.00 0.00 0.00 47 1012.7
20260504003221 18 202 1.6 4.8 0.00 0.00 0.00 46 1012.7
20260504002715 18 198 3.2 4.8 0.00 0.00 0.00 45 1012.8
20260504002430 18 192 3.2 4.8 0.00 0.00 0.00 46 1012.8
20260504001921 18 190 3.2 4.8 0.00 0.00 0.00 45 1012.8
20260504001158 18 202 3.2 6.4 0.00 0.00 0.00 43 1013.0
20260504000652 18 188 4.8 8.0 0.00 0.00 0.00 44 1013.0
20260504000145 19 200 4.8 8.0 0.00 0.00 0.00 43 1013.0
20260503235639 19 194 4.8 6.4 0.00 0.00 0.00 43 1013.1
20260503235136 19 201 4.8 9.7 0.00 0.00 0.00 42 1013.1
20260503234627 19 179 4.8 9.7 0.00 0.00 0.00 42 1013.1
20260503234121 20 201 4.8 9.7 0.00 0.00 0.00 41 1013.2
20260503233841 20 182 6.4 12.9 0.00 0.00 0.00 41 1013.3
20260503233109 20 173 6.4 12.9 0.00 0.00 0.00 40 1013.3
20260503232603 20 195 6.4 11.3 0.00 0.00 0.00 40 1013.4
20260503232058 20 186 6.4 11.3 0.00 0.00 0.00 39 1013.5
20260503231552 21 192 6.4 9.7 0.00 0.00 0.00 40 1013.5
20260503231046 21 221 6.4 11.3 0.00 0.00 0.00 40 1013.6
20260503230553 21 213 6.4 12.9 0.00 0.00 0.00 37 1013.6
20260503230034 21 220 4.8 12.9 0.00 0.00 0.00 39 1013.6
20260503225753 22 211 4.8 11.3 0.00 0.00 0.00 37 1013.7
20260503225022 22 157 4.8 9.7 0.00 0.00 0.00 39 1013.7
20260503224518 22 183 4.8 9.7 0.00 0.00 0.00 39 1013.8
20260503224229 22 169 3.2 6.4 0.00 0.00 0.00 39 1013.8
20260503223516 22 201 4.8 11.3 0.00 0.00 0.00 41 1013.7
20260503223223 22 170 4.8 11.3 0.00 0.00 0.00 38 1013.8
20260503222452 22 200 6.4 11.3 0.00 0.00 0.00 39 1013.8
20260503221946 22 177 8.0 11.3 0.00 0.00 0.00 40 1013.9
20260503221705 22 191 6.4 11.3 0.00 0.00 0.00 38 1013.8
20260503220934 22 196 4.8 12.9 0.00 0.00 0.00 39 1013.9
20260503220427 22 186 4.8 12.9 0.00 0.00 0.00 37 1013.8
20260503215921 22 171 4.8 9.7 0.00 0.00 0.00 39 1013.9
20260503215416 22 194 4.8 9.7 0.00 0.00 0.00 39 1014.2
20260503214909 22 200 6.4 9.7 0.00 0.00 0.00 37 1014.2
20260503214404 22 178 6.4 12.9 0.00 0.00 0.00 40 1014.3
20260503213900 22 186 6.4 12.9 0.00 0.00 0.00 37 1014.5
20260503213351 22 201 6.4 11.3 0.00 0.00 0.00 39 1014.4
20260503212846 22 176 6.4 14.5 0.00 0.00 0.00 41 1014.7
20260503212339 22 200 6.4 14.5 0.00 0.00 0.00 38 1014.7
20260503211835 22 208 6.4 11.3 0.00 0.00 0.00 41 1014.6
20260503211328 22 232 6.4 11.3 0.00 0.00 0.00 38 1014.8
20260503211039 22 203 6.4 16.1 0.00 0.00 0.00 39 1014.9
20260503210537 22 157 6.4 16.1 0.00 0.00 0.00 41 1014.9
20260503210011 23 162 4.8 11.3 0.00 0.00 0.00 38 1015.3
20260503205901 22 211 6.4 11.3 0.00 0.00 0.00 35 1015.2
20260503204758 23 178 6.4 11.3 0.00 0.00 0.00 37 1015.4
20260503204251 23 194 6.4 9.7 0.00 0.00 0.00 38 1015.6
20260503203745 23 167 4.8 11.3 0.00 0.00 0.00 37 1015.6
20260503203246 23 295 4.8 11.3 0.00 0.00 0.00 39 1015.6
20260503202744 22 202 4.8 9.7 0.00 0.00 0.00 38 1015.9
20260503202241 22 186 4.8 9.7 0.00 0.00 0.00 41 1016.0
20260503201741 22 206 6.4 9.7 0.00 0.00 0.00 39 1016.0
20260503201241 22 182 6.4 9.7 0.00 0.00 0.00 43 1016.2
20260503200740 22 198 4.8 9.7 0.00 0.00 0.00 37 1016.1
20260503200240 22 219 4.8 9.7 0.00 0.00 0.00 38 1016.4
20260503195740 22 232 4.8 12.9 0.00 0.00 0.00 36 1016.4
20260503195238 22 222 8.0 17.7 0.00 0.00 0.00 37 1016.6
20260503194738 22 197 6.4 17.7 0.00 0.00 0.00 37 1016.7
20260503194238 22 201 4.8 11.3 0.00 0.00 0.00 39 1016.8
20260503194005 22 217 4.8 11.3 0.00 0.00 0.00 41 1016.9
20260503193236 22 203 6.4 11.3 0.00 0.00 0.00 36 1017.0
20260503192959 22 194 4.8 12.9 0.00 0.00 0.00 43 1017.0
20260503192234 22 324 3.2 12.9 0.00 0.00 0.00 36 1017.1
20260503191734 22 200 4.8 11.3 0.00 0.00 0.00 36 1017.3
20260503191233 22 157 3.2 8.0 0.00 0.00 0.00 42 1017.4
20260503190733 22 201 3.2 8.0 0.00 0.00 0.00 39 1017.4
20260503190451 22 268 4.8 12.9 0.00 0.00 0.00 43 1017.6
20260503185732 22 189 6.4 12.9 0.00 0.00 0.00 41 1017.8
20260503185231 22 190 6.4 12.9 0.00 0.00 0.00 38 1017.8
20260503184732 22 223 4.8 12.9 0.00 0.00 0.00 38 1018.0
20260503184231 22 194 4.8 11.3 0.00 0.00 0.00 39 1017.9
20260503183731 21 161 4.8 11.3 0.00 0.00 0.00 42 1018.0
20260503183232 21 235 4.8 11.3 0.00 0.00 0.00 42 1018.1
20260503183007 21 204 6.4 12.9 0.00 0.00 0.00 41 1018.1
20260503182232 21 173 4.8 12.9 0.00 0.00 0.00 43 1018.2
20260503181732 21 163 4.8 12.9 0.00 0.00 0.00 38 1018.4
20260503181232 21 186 4.8 9.7 0.00 0.00 0.00 41 1018.5
20260503180745 21 293 4.8 9.7 0.00 0.00 0.00 37 1018.4
20260503180231 21 190 4.8 8.0 0.00 0.00 0.00 45 1018.5
20260503175732 21 205 4.8 9.7 0.00 0.00 0.00 43 1018.5
20260503175232 21 252 6.4 11.3 0.00 0.00 0.00 41 1018.6
20260503175002 21 200 6.4 11.3 0.00 0.00 0.00 43 1018.7
20260503174232 21 205 4.8 11.3 0.00 0.00 0.00 41 1018.7
20260503173731 21 167 4.8 12.9 0.00 0.00 0.00 48 1018.8
20260503173231 21 181 6.4 12.9 0.00 0.00 0.00 46 1018.8
20260503172732 21 166 6.4 12.9 0.00 0.00 0.00 43 1018.8
20260503172231 21 198 4.8 11.3 0.00 0.00 0.00 43 1019.1
20260503171731 21 166 4.8 9.7 0.00 0.00 0.00 44 1019.2
20260503171225 21 192 4.8 9.7 0.00 0.00 0.00 44 1019.3
20260503170724 20 148 4.8 11.3 0.00 0.00 0.00 44 1019.5
20260503170223 20 180 4.8 11.3 0.00 0.00 0.00 44 1019.6